[[{"header":{"parameterUnit":"m.s-1","parameterCategory":1,"la1":30.2991,"la2":30.254,"lo1":-89.0895,"lo2":-89.0444,"dy":0.0017,"dx":0.0017,"nx":28,"ny":28,"refTime":"2023-03-21T21:00:00:Z","depth":0,"parameterNumber":2,"parameterNumberName":"U-component_of_WINDS"},"data":[0,0,0,0,0,0,0,0,0,0,0,0,0,0,0,0,0,0,0,0,0,0,0,0,0,0,0,0,0,0,0,0,0,0,0,0,0,0,0,0,0,0,0,0,0,0,0,0,0,0,0,0,0,0,0,0,0,0,-3.1665,-3.1665,0,-3.1735,-3.1736,-3.1736,-3.1717,-3.1716,-3.1715,-3.1713,-3.1784,-3.1787,-3.1791,0,0,0,0,0,0,0,0,0,0,0,0,0,-3.1514,-3.1517,-3.1665,-3.1665,-3.1666,-3.1735,-3.1736,-3.1737,-3.1718,-3.1716,-3.1714,-3.1713,-3.1783,-3.1787,-3.1791,0,0,0,0,0,0,0,0,0,0,0,0,0,-3.1581,-3.1517,-3.1664,-3.1665,-3.1666,-3.1734,-3.1736,-3.1737,-3.1718,-3.1716,-3.1714,-3.1712,-3.1782,-3.1787,-3.1791,-3.1863,0,0,-3.1806,-3.1808,0,0,0,0,0,0,0,0,-3.1577,-3.1587,-3.1664,-3.1665,-3.1666,-3.1715,-3.1708,-3.1779,-3.1719,-3.1698,-3.1713,-3.1711,-3.1763,-3.1769,-3.1787,-3.1866,-3.187,-3.1806,-3.1809,-3.1811,-3.1813,0,0,0,0,0,0,0,-3.1573,-3.1583,-3.1692,-3.1665,-3.1667,-3.1662,-3.1669,-3.1722,-3.1742,-3.17,-3.1699,-3.1707,-3.1763,-3.1782,-3.1788,-3.1871,-3.1806,-3.1811,-3.1814,-3.1815,-3.2012,-3.2014,0,0,0,0,0,0,-3.1567,-3.158,-3.169,-3.1694,-3.1616,-3.1666,-3.1674,-3.1702,-3.1741,-3.1745,-3.1709,-3.1706,-3.1775,-3.1783,-3.1791,-3.1876,-3.1811,-3.1816,-3.1819,-3.2009,-3.2012,-3.2015,0,0,0,0,0,0,-3.1564,-3.1577,-3.1687,-3.1637,-3.165,-3.1671,-3.1702,-3.1704,-3.1723,-3.1748,-3.1751,-3.1725,-3.1774,-3.1784,-3.1845,-3.1879,-3.1818,-3.1822,-3.2007,-3.201,-3.2013,-3.2049,0,0,0,0,0,0,-3.156,-3.1576,-3.1604,-3.1638,-3.1653,-3.1741,-3.1704,-3.1707,-3.1732,-3.1729,-3.1764,-3.1768,-3.1773,-3.1838,-3.185,-3.1884,-3.1826,-3.2004,-3.2008,-3.2012,-3.2045,-3.2053,-3.206,0,0,0,0,0,-3.1554,-3.1611,-3.1605,-3.1619,-3.1688,-3.1743,-3.1752,-3.1757,-3.1735,-3.1762,-3.1778,-3.1766,-3.1874,-3.1845,-3.1858,-3.1894,-3.2001,-3.2007,-3.2012,-3.2041,-3.2051,-3.206,0,0,0,0,0,0,-3.158,-3.1615,-3.1609,-3.1679,-3.1708,-3.1739,-3.1774,-3.1768,-3.1804,-3.1799,-3.1804,-3.1812,-3.1874,-3.1891,-3.1858,-3.1965,-3.1934,-3.1942,-3.1952,-3.1962,-3.1969,-3.1963,-3.183,0,0,0,0,0,-3.1594,-3.1636,-3.1664,-3.1722,-3.1737,-3.1754,-3.1778,-3.1779,-3.1809,-3.1822,-3.1842,-3.1871,-3.1912,-3.1938,-3.1976,-3.2048,-3.2054,-3.2079,-3.2087,-3.2093,-3.2099,-3.2137,-3.2148,-3.2032,-3.2032,-3.2032,0,0,-3.1623,-3.1647,-3.1673,-3.1728,-3.1751,-3.1793,-3.1764,-3.181,-3.1842,-3.1829,-3.1887,-3.1903,-3.1936,-3.2003,-3.2033,-3.2018,-3.2133,-3.21,-3.2104,-3.2107,-3.2144,-3.2154,-3.2164,-3.2035,-3.2035,-3.2034,0,0,-3.1697,-3.172,-3.1771,-3.1794,-3.1829,-3.1839,-3.1852,-3.1885,-3.1895,-3.1954,-3.1944,-3.1982,-3.2051,-3.2075,-3.2096,-3.218,-3.217,-3.2192,-3.2232,-3.2269,-3.2278,-3.2286,-3.2314,-3.2325,-3.2199,-3.2199,-3.2199,0,-3.1728,-3.1792,-3.1797,-3.1844,-3.1868,-3.1859,-3.191,-3.1933,-3.1978,-3.1995,-3.1978,-3.2065,-3.2087,-3.2158,-3.2178,-3.2196,-3.2209,-3.2187,-3.2276,-3.2284,-3.2292,-3.2319,-3.233,-3.2201,-3.2201,-3.2201,-3.2201,0,-3.1828,-3.1872,-3.1909,-3.1953,-3.1981,-3.203,-3.2043,-3.2071,-3.2071,-3.2083,-3.2143,-3.2169,-3.2212,-3.2229,-3.2229,-3.23,-3.229,-3.2275,-3.2244,-3.2305,-3.2331,-3.2341,-3.2205,-3.2204,-3.2203,-3.2203,0,0,-3.1919,-3.1966,-3.1979,-3.1998,-3.2036,-3.2071,-3.2119,-3.2161,-3.2185,-3.2217,-3.2257,-3.2316,-3.2302,-3.2327,-3.2329,-3.2362,-3.2425,-3.2343,-3.2343,-3.2355,-3.2503,-3.2513,-3.2525,-3.2419,-3.2421,-3.2423,-3.2499,0,-3.1994,-3.2079,-3.2086,-3.2162,-3.2202,-3.2194,-3.2236,-3.2264,-3.2277,-3.2313,-3.2327,-3.2369,-3.2348,-3.2362,-3.2394,-3.241,-3.2454,-3.2405,-3.2455,-3.2457,-3.2445,-3.2538,-3.2549,-3.262,-3.251,-3.2511,-3.2513,0,-3.2094,-3.2129,-3.2209,-3.2241,-3.2258,-3.2296,-3.2335,-3.237,-3.2401,-3.2408,-3.2435,-3.2433,-3.2482,-3.2451,-3.2518,-3.2485,-3.2506,-3.2517,-3.252,-3.2523,-3.2487,-3.2542,-3.2643,-3.2653,-3.2529,-3.2527,-3.2526,0,-3.215,-3.2218,-3.2274,-3.2291,-3.233,-3.2356,-3.2374,-3.2403,-3.2428,-3.2462,-3.2478,-3.2518,-3.254,-3.257,-3.2579,-3.2556,-3.2646,-3.2615,-3.2652,-3.2652,-3.267,-3.2668,-3.2773,-3.2686,-3.2686,-3.2686,-3.2686,0,-3.2233,-3.2282,-3.2299,-3.2334,-3.2388,-3.2396,-3.2449,-3.2465,-3.2491,-3.2528,-3.2525,-3.256,-3.257,-3.2607,-3.2614,-3.2668,-3.2678,-3.2685,-3.2686,-3.2684,-3.2683,-3.2696,-3.2691,-3.2689,-3.2688,-3.2688,-3.2687,0,-3.2305,-3.2318,-3.2379,-3.2411,-3.242,-3.2459,-3.2486,-3.2519,-3.2531,-3.2578,-3.259,-3.2609,-3.2652,-3.2665,-3.2717,-3.2721,-3.2784,-3.2782,-3.2773,-3.2773,-3.2808,-3.2804,-3.2924,-3.2939,-3.2844,-3.2845,-3.2846,0,-3.2356,-3.2393,-3.2429,-3.2454,-3.2472,-3.2512,-3.2537,-3.2546,-3.2573,-3.2611,-3.2639,-3.2682,-3.2716,-3.2785,-3.2803,-3.2843,-3.284,-3.288,-3.2846,-3.2843,-3.2839,-3.2836,-3.2839,-3.2885,-3.2886,-3.2887,-3.2888,0,-3.2445,-3.245,-3.2486,-3.2525,-3.2556,-3.2587,-3.2617,-3.2637,-3.265,-3.268,-3.2724,-3.2751,-3.2803,-3.2845,-3.2885,-3.2903,-3.2897,-3.2898,-3.2909,-3.2906,-3.2899,-3.2902,-3.2789,-3.2895,-3.2894,-3.2894,-3.2893,-3.2893,-3.2507,-3.2539,-3.2569,-3.261,-3.2633,-3.2661,-3.2694,-3.271,-3.2747,-3.279,-3.2794,-3.2841,-3.2871,-3.2924,-3.2944,-3.298,-3.2969,-3.2984,-3.2987,-3.2991,-3.2993,-3.2895,-3.2988,-3.2988,-3.2988,-3.2987,-3.2987,0,-3.2594,-3.2613,-3.265,-3.2692,-3.2724,-3.2717,-3.275,-3.2777,-3.2818,-3.2847,-3.2881,-3.2931,-3.2971,-3.2993,-3.3033,-3.3059,-3.3057,-3.3069,-3.3066,-3.307,-3.3002,-3.2988,-3.3069,-3.3069,-3.3069,-3.3069,-3.3069,-3.3069,-3.2643,-3.2697,-3.2706,-3.2771,-3.279,-3.2836,-3.2855,-3.288,-3.2903,-3.2959,-3.2993,-3.3007,-3.3033,-3.3075,-3.3111,-3.3117,-3.3131,-3.3144,-3.3148,-3.3083,-3.3075,-3.3067,-3.3054,-3.3147,-3.3148,-3.3213,-3.3213,-3.3214]},{"header":{"parameterUnit":"m.s-1","parameterCategory":1,"la1":30.2991,"la2":30.254,"lo1":-89.0895,"lo2":-89.0444,"dy":0.0017,"dx":0.0017,"nx":28,"ny":28,"refTime":"2023-03-21T21:00:00:Z","depth":0,"parameterNumber":3,"parameterNumberName":"V-component_of_WINDS"},"data":[0,0,0,0,0,0,0,0,0,0,0,0,0,0,0,0,0,0,0,0,0,0,0,0,0,0,0,0,0,0,0,0,0,0,0,0,0,0,0,0,0,0,0,0,0,0,0,0,0,0,0,0,0,0,0,0,0,0,4.9982,4.9982,0,4.9967,4.9967,4.9966,4.9869,4.9867,4.9865,4.9862,4.9847,4.9849,4.9851,0,0,0,0,0,0,0,0,0,0,0,0,0,4.9928,4.993,4.9982,4.9982,4.9982,4.9967,4.9966,4.9966,4.987,4.9867,4.9864,4.9861,4.9847,4.9849,4.9851,0,0,0,0,0,0,0,0,0,0,0,0,0,4.9936,4.993,4.9982,4.9932,4.9927,4.9967,4.9966,4.9966,4.987,4.9867,4.9863,4.986,4.9846,4.9849,4.9851,4.9939,0,0,4.986,4.9861,0,0,0,0,0,0,0,0,4.9936,4.9938,4.9939,4.9935,4.993,4.9916,4.9942,4.9957,4.9871,4.9892,4.9862,4.9858,4.9873,4.9874,4.9878,4.9938,4.9937,4.986,4.9862,4.9863,4.9863,0,0,0,0,0,0,0,4.9936,4.9938,4.9976,4.9939,4.9934,4.991,4.9907,4.9944,4.9903,4.989,4.9883,4.9882,4.987,4.9876,4.9877,4.9937,4.986,4.9862,4.9864,4.9865,5.0067,5.007,0,0,0,0,0,0,4.9942,4.9939,4.9976,4.9975,4.9924,4.9914,4.9911,4.9924,4.9902,4.9895,4.9885,4.9878,4.9873,4.9874,4.9876,4.9976,4.9863,4.9865,4.9867,5.0063,5.0068,5.0072,0,0,0,0,0,0,4.9941,4.9946,4.9977,4.9955,4.9957,4.9919,4.9935,4.9926,4.9932,4.9898,4.9891,4.9899,4.987,4.9873,4.9924,4.9974,4.9866,4.9869,5.0059,5.0064,5.007,5.0176,0,0,0,0,0,0,4.994,4.9947,4.9979,4.9957,4.9959,5.0025,4.9938,4.9928,4.9936,4.9926,4.9909,4.9903,4.9868,4.992,4.9926,4.9976,4.9871,5.0054,5.0061,5.0068,5.0168,5.0185,5.0199,0,0,0,0,0,4.9938,5.001,4.9981,4.9986,4.9999,5.0028,5.0029,4.9987,4.9941,4.9973,4.9952,4.9903,4.9968,4.9926,4.9932,4.9983,5.0051,5.0059,5.0067,5.0161,5.0182,5.0199,0,0,0,0,0,0,5.004,5.0006,4.9974,5.004,5.0038,5.0011,5.005,5.001,5.002,5.0011,4.9958,4.9955,5.0014,5.0004,4.9958,5.0066,5.0001,5.0011,5.007,5.0089,5.0105,5.0105,4.9873,0,0,0,0,0,5.007,5.0096,5.0065,5.0127,5.0127,5.009,5.0101,5.0069,5.0064,5.0062,5.0044,5.0042,5.0061,5.0075,5.0091,5.0167,5.0161,5.0205,5.0221,5.0234,5.0243,5.0281,5.03,5.0099,5.0099,5.0099,0,0,5.0132,5.0117,5.0137,5.0147,5.0141,5.0169,5.0089,5.0123,5.0143,5.0067,5.0113,5.0101,5.0095,5.0158,5.0185,5.0152,5.0297,5.0245,5.0255,5.0257,5.0291,5.031,5.0327,5.0105,5.0104,5.0103,0,0,5.0259,5.0251,5.0301,5.0297,5.0289,5.0263,5.0276,5.0256,5.0244,5.029,5.0234,5.0258,5.0293,5.029,5.0293,5.0421,5.0376,5.0428,5.0508,5.0546,5.0562,5.0576,5.062,5.0636,5.0437,5.0437,5.0438,0,5.0337,5.0377,5.0332,5.0368,5.0374,5.0308,5.0357,5.0356,5.0354,5.036,5.0322,5.0364,5.0356,5.0417,5.0448,5.0454,5.0465,5.0428,5.0564,5.0577,5.0589,5.063,5.0647,5.0443,5.0443,5.0442,5.0442,0,5.0473,5.0502,5.0543,5.0542,5.0553,5.0597,5.0558,5.0574,5.0542,5.0521,5.0568,5.0556,5.0568,5.058,5.0549,5.0638,5.0617,5.0573,5.0505,5.0615,5.0653,5.0668,5.0452,5.045,5.0448,5.0447,0,0,5.0661,5.0636,5.0651,5.065,5.0637,5.0658,5.0699,5.071,5.0725,5.0727,5.0758,5.079,5.0749,5.0753,5.0721,5.0755,5.0855,5.0706,5.0705,5.0733,5.095,5.0982,5.1001,5.0827,5.083,5.0832,5.095,0,5.0782,5.0849,5.0809,5.0882,5.0907,5.0845,5.088,5.0876,5.0858,5.0877,5.0857,5.0879,5.0824,5.0826,5.0857,5.0837,5.0898,5.0828,5.0855,5.0857,5.0856,5.1021,5.1055,5.1167,5.0965,5.0968,5.0969,0,5.0931,5.0938,5.1013,5.0995,5.1004,5.1036,5.1043,5.1063,5.1057,5.1041,5.1047,5.1007,5.1045,5.0981,5.1033,5.0986,5.0995,5.0987,5.0991,5.099,5.0918,5.1023,5.1202,5.1219,5.0993,5.0991,5.0989,0,5.1059,5.1088,5.1136,5.1137,5.1117,5.1141,5.1134,5.1125,5.1134,5.1141,5.1146,5.1158,5.1164,5.1175,5.1139,5.1096,5.1196,5.1129,5.1183,5.1184,5.1205,5.1204,5.1386,5.1215,5.1215,5.1214,5.1214,0,5.1196,5.1244,5.1193,5.1222,5.1274,5.1229,5.1282,5.1268,5.1261,5.1287,5.1235,5.126,5.1213,5.1234,5.1206,5.1253,5.1257,5.1245,5.1236,5.1248,5.1249,5.1252,5.1242,5.1219,5.1218,5.1217,5.1216,0,5.1346,5.1314,5.1362,5.134,5.1335,5.1375,5.1355,5.1382,5.136,5.1394,5.1399,5.1366,5.1387,5.1354,5.1372,5.1353,5.1418,5.1399,5.1419,5.1413,5.1468,5.1463,5.1657,5.168,5.1496,5.1498,5.15,0,5.1435,5.147,5.1451,5.1465,5.1461,5.1483,5.1492,5.145,5.1462,5.1458,5.1485,5.1503,5.1514,5.1552,5.1529,5.1543,5.1523,5.159,5.1524,5.1535,5.1522,5.1519,5.1522,5.1603,5.1605,5.1607,5.1608,0,5.1595,5.1578,5.1593,5.1603,5.1615,5.1621,5.1623,5.1637,5.1592,5.1609,5.163,5.1639,5.1657,5.1675,5.1683,5.1676,5.1635,5.163,5.1642,5.1654,5.1663,5.1657,5.1454,5.1625,5.1623,5.1622,5.1621,5.162,5.1716,5.1744,5.1735,5.1753,5.1751,5.1754,5.1777,5.1759,5.1776,5.1787,5.1762,5.1789,5.1783,5.179,5.1787,5.1808,5.1779,5.1798,5.1802,5.1807,5.1815,5.1662,5.181,5.1809,5.1809,5.1809,5.1808,0,5.1872,5.1863,5.1881,5.1885,5.19,5.186,5.186,5.1875,5.19,5.1898,5.191,5.1935,5.1952,5.1931,5.1945,5.1966,5.1947,5.197,5.1967,5.1966,5.1842,5.1828,5.1985,5.1985,5.1985,5.1985,5.1985,5.1985,5.1954,5.1999,5.1981,5.2024,5.2015,5.2041,5.2045,5.2047,5.2045,5.2075,5.2089,5.2075,5.2065,5.2078,5.2092,5.2085,5.2092,5.2122,5.2109,5.1992,5.1975,5.1958,5.1945,5.2124,5.2124,5.2231,5.2232,5.2233]}]]